Location: Newark
(48.3453°N, 0.5589°E)
Time: 01:36:01
(UTC+00:00)

A-11 Canister half - Pass Details

Date: 07 December 2019
Orbit: 1517 x 1683 km, 47.2° (Epoch: 22 January)

Event Time Altitude Azimuth Distance (km) Brightness Sun altitude
Rises 13:12:21 0° 232° (SW) 4,760 12.6 16.6°
Reaches altitude 10° 13:15:26 10° 229° (SW) 3,800 12.4 16.5°
Maximum altitude 13:24:55 60° 152° (SSE) 1,827 10.0 15.9°
Drops below altitude 10° 13:34:43 10° 76° (ENE) 3,927 10.8 15.2°
Sets 13:37:57 0° 73° (ENE) 4,928 11.3 15.0°
